Tracking 29892 objects as of 21-Nov-2024
HD Live streaming from Space Station
objects crossing your sky now

DELTA 1 DEB

Track DELTA 1 DEB now!
10-day predictions


NORAD ID: 7176
Int'l Code: 1973-086EN
Perigee: 1,229.4 km
Apogee: 1,503.1 km
Inclination: 102.2 °
Period: 112.9 minutes
Semi major axis: 7737 km
RCS: 0.0911 m2 (small)
Launch date: November 6, 1973
Source: United States (US)
Launch site: AIR FORCE WESTERN TEST RANGE (AFWTR)

Note: This is SATELLITE DEBRIS
Your satellite tracking list
Your tracking list is empty




NASA's NSSDC Master Catalog

Two Line Element Set (TLE):
1 07176U 73086EN  24324.93699111  .00000086  00000-0  59556-3 0  9996
2 07176 102.2497 202.1209 0176887  55.6865  61.0346 12.75624455374371
Source of the keplerian elements: AFSPC